This is the latest recevied weather packets stored in our database for station/object DG0PX-12. If no packets are shown the sender has not sent any weather packets the latest 10 day(s).
| Time | Temp. | Humidity | Pressure | Rain* | Wind** | Luminosity | Snow |
|---|---|---|---|---|---|---|---|
| 1777526959 | 4.44° C | 41% | 958.3 hPa | - | - | - | - |
| 1777526059 | 3.89° C | 42% | 958.4 hPa | - | - | - | - |
| 1777525159 | 4.44° C | 41% | 958.3 hPa | - | - | - | - |
| 1777524258 | 3.89° C | 41% | 958 hPa | - | - | - | - |
| 1777523358 | 3.89° C | 41% | 958.1 hPa | - | - | - | - |
| 1777522458 | 3.33° C | 42% | 957.9 hPa | - | - | - | - |
| 1777521558 | 2.78° C | 43% | 957.8 hPa | - | - | - | - |
| 1777520658 | 3.33° C | 40% | 957.6 hPa | - | - | - | - |
| 1777519758 | 3.33° C | 41% | 957.7 hPa | - | - | - | - |
| 1777518858 | 3.89° C | 40% | 957.5 hPa | - | - | - | - |
| 1777517958 | 2.78° C | 41% | 957.6 hPa | - | - | - | - |
| 1777517058 | 2.78° C | 41% | 957.6 hPa | - | - | - | - |
| 1777516158 | 3.33° C | 40% | 957.7 hPa | - | - | - | - |
| 1777515258 | 3.89° C | 39% | 957.6 hPa | - | - | - | - |
| 1777514358 | 4.44° C | 38% | 957.6 hPa | - | - | - | - |
| 1777513458 | 3.89° C | 38% | 957.6 hPa | - | - | - | - |
| 1777512558 | 4.44° C | 38% | 957.6 hPa | - | - | - | - |
| 1777511657 | 5° C | 37% | 957.5 hPa | - | - | - | - |
| 1777510757 | 5° C | 37% | 957.5 hPa | - | - | - | - |
| 1777509857 | 5° C | 37% | 957.4 hPa | - | - | - | - |
| 1777508957 | 5.56° C | 36% | 957.3 hPa | - | - | - | - |
| 1777508057 | 5.56° C | 36% | 957.4 hPa | - | - | - | - |
| 1777507157 | 6.11° C | 38% | 957.2 hPa | - | - | - | - |
| 1777506257 | 6.11° C | 40% | 957.2 hPa | - | - | - | - |
| 1777505356 | 7.22° C | 41% | 957.1 hPa | - | - | - | - |
* Rain since midnight (hover to see other rain measurements)
** Current wind speed in m/s (hover to see current wind gust speed)